Погода в Николаевке

Украина / Николаевская область     47°44′59″N   32°50′46″E
темп.,
°C
ветер,
м/с
пор.,
м/с
влажн.,
%
обл.,
%
осадки,
мм/ч
давл.,
гПа
погр.,
м
11 апреля, вс
вс1100:00+6св33520 0.0 102640
03:00+5ссв34500 0.0 102738
06:00+4ссв46540 0.0 102782
09:00+9св58490 0.0 1028427
12:00+13св67375 0.0 10261489
15:00+15св78345 0.0 10251700
18:00+14св6840100 0.0 10241254
21:00+10ссв41052100 0.0 1025201
12 апреля, пн
пн1200:00+8ссв41059100 0.0 1024175
03:00+7ссв41062100 0.0 1023215
06:00+7ссв41162100 0.0 1022299
09:00+8ссв4868100 0.0 1022385
12:00+11св4567100 0.0 1021631
15:00+15св3460100 0.0 10201097
18:00+12зюз2382100 0.4 101956
21:00+11зсз2385100 0.8 101954
13 апреля, вт
вт1300:00+11ююз2390100 0.1 101968
03:00+10ююз4790100 0.1 1019266
06:00+9ююв3684100 0.0 1019216
09:00+10ююв467574 0.0 1020431
12:00+14ююв5660100 0.0 10191361
15:00+13ююв4565100 0.1 10191016
18:00+13ююв3568100 0.0 1019787
21:00+11ююв2376100 0.1 101986
14 апреля, ср
ср1400:00+10ююз2279100 0.0 101963
03:00+9ююз2482100 0.0 1018156
06:00+8ю248589 0.0 1018169
09:00+9ююв3481100 0.0 1018438
12:00+11юв237287 0.3 1017614
15:00+15ююз355150 0.6 10161644
18:00+14ю3458100 0.2 1015698
21:00+12в226676 0.2 101517
15 апреля, чт
чт1500:00+9юв378295 0.0 1015166
03:00+9вюв3587100 0.0 1014155
06:00+8в35859 0.0 1014151
09:00+11в4470100 0.0 1014418
12:00+15вюв4553100 0.0 10121209
15:00+15вюв4554100 0.0 10121560
18:00+13юв3571100 0.1 1011401
21:00+10в4588100 0.7 1011374